Terminal Aerodrome Forecast
Issued by NWS Louisville, KY

Home | Current Version | Previous Version | Text Only | Print | Product List | Glossary On
Versions: 1 2 3 4 5 6 7 8 9 10 11 12 13 14 15 16 17 18 19
000
FTUS43 KLMK 190500
TAFBWG
TAF
KBWG 190534Z 1906/2006 VRB03KT 6SM BR FEW050 BKN080
     FM190900 00000KT 3SM BR SCT008
     FM191500 26008KT P6SM SCT040
     FM200000 20007KT P6SM SCT035 BKN140=

USA.gov is the U.S. government's official web portal to all federal, state and local government web resources and services.